Markham, Ontario

11:22 AM EDT on May 23, 2017 (GMT -0400)
Markham

Weather History for CYKZ - November, 2011

Change the Weather History Date:

Saturday, November 19, 2011

  Actual Average Record
Temperature  
Mean Temperature 46 °F -  
Max Temperature 53 °F 41 °F 61 °F (2015)
Min Temperature 39 °F 28 °F 14 °F (2008)
Degree Days  
Heating Degree Days 19    
Moisture  
Dew Point 31 °F    
Average Humidity 52    
Maximum Humidity 71    
Minimum Humidity 38    
Precipitation  
Precipitation 0.00 in - - ()
Sea Level Pressure  
Sea Level Pressure 30.03 in    
Wind  
Wind Speed 9 mph ()    
Max Wind Speed 17 mph    
Max Gust Speed 23 mph    
Visibility 15.0 miles    
Events Rain    
Averages and records for this station are not official NWS values.
T = Trace of Precipitation, MM = Missing Value Source: Averaged Metar Reports

Daily Weather History Graph

Daily Weather History Graph

Search for Another Location

Airport or City:

Trip Planner

Search our weather history database for the weather conditions in past years. The results will help you decide how hot, cold, wet, or windy it might be!

Date:

Astronomy

Nov. 19, 2011 Rise Set
Actual Time 7:16 AM EST 4:48 PM EST
Civil Twilight 6:45 AM EST 5:19 PM EST
Nautical Twilight 6:10 AM EST 5:54 PM EST
Astronomical Twilight 5:36 AM EST 6:28 PM EST
Moon 12:23 AM EST (11/19) 1:16 PM EST (11/19)
Length of Visible Light 10h 34m
Length of Day
9h 31m
Last Quarter, 38% of the Moon is Illuminated
Nov 19
Last Quarter
Nov 25
New
Dec 2
First Quarter
Dec 10
Full
Dec 17
Last Quarter

Hourly Weather History & Observations

Time (EST) Temp. Windchill Dew Point Humidity Pressure Visibility Wind Dir Wind Speed Gust Speed Precip Events Conditions
1:00 AM 40 °F - 23 °F 38% 30.09 in 15 mi SSW 6.9 mph - -   Mostly Cloudy
1:00 AM 41.0 °F 36.4 °F 23.0 °F 49% 30.09 in 15.0 mi SSW 6.9 mph - N/A   Mostly Cloudy
2:00 AM 41.0 °F 36.4 °F 23.0 °F 49% 30.09 in 15.0 mi SSW 6.9 mph - N/A   Mostly Cloudy
3:00 AM 41.0 °F 36.4 °F 24.8 °F 53% 30.10 in 15.0 mi SSW 6.9 mph - N/A   Mostly Cloudy
4:00 AM 41.0 °F 34.7 °F 24.8 °F 53% 30.09 in 15.0 mi SSW 10.4 mph - N/A   Mostly Cloudy
5:00 AM 39.2 °F 33.6 °F 24.8 °F 56% 30.09 in 15.0 mi SSW 8.1 mph - N/A   Partly Cloudy
6:00 AM 41.0 °F 36.4 °F 24.8 °F 53% 30.09 in 15.0 mi SSW 6.9 mph - N/A   Mostly Cloudy
7:00 AM 41 °F - 26 °F 43% 30.09 in 15 mi SSW 6.9 mph - -   Mostly Cloudy
7:00 AM 41.0 °F 36.4 °F 26.6 °F 57% 30.09 in 15.0 mi SSW 6.9 mph - N/A   Mostly Cloudy
8:00 AM 41.0 °F 37.1 °F 28.4 °F 61% 30.09 in 15.0 mi SW 5.8 mph - N/A   Mostly Cloudy
9:00 AM 46.4 °F 40.4 °F 32.0 °F 57% 30.07 in 15.0 mi West 13.8 mph 21.9 mph N/A   Mostly Cloudy
10:00 AM 48.2 °F - 32.0 °F 54% 30.06 in 15.0 mi West 10.4 mph 17.3 mph N/A   Mostly Cloudy
11:00 AM 51.8 °F - 32.0 °F 47% 30.06 in 15.0 mi SW 12.7 mph 23.0 mph N/A   Scattered Clouds
12:00 PM 51.8 °F - 32.0 °F 47% 30.03 in 15.0 mi SW 10.4 mph 19.6 mph N/A   Mostly Cloudy
1:00 PM 52 °F - 34 °F 39% 30.01 in 15 mi South 13.8 mph - -   Scattered Clouds
1:00 PM 51.8 °F - 33.8 °F 50% 30.01 in 15.0 mi South 13.8 mph - N/A   Mostly Cloudy
2:00 PM 50.0 °F - 33.8 °F 54% 30.01 in 15.0 mi South 15.0 mph 20.7 mph N/A   Mostly Cloudy
3:00 PM 51.8 °F - 35.6 °F 54% 29.99 in 15.0 mi SSW 12.7 mph 20.7 mph N/A   Mostly Cloudy
5:00 PM 50.0 °F - 32.0 °F 50% 30.00 in 15.0 mi SSW 11.5 mph 18.4 mph N/A   Overcast
6:00 PM 51.8 °F - 32.0 °F 47% 29.99 in 15.0 mi SSW 9.2 mph - N/A   Overcast
7:00 PM 51 °F - 33 °F 38% 29.98 in 15 mi SSW 11.5 mph - -   Overcast
7:00 PM 51.8 °F - 33.8 °F 50% 29.98 in 15.0 mi SSW 10.4 mph - N/A   Overcast
8:00 PM 51.8 °F - 35.6 °F 54% 29.96 in 15.0 mi SSW 11.5 mph 17.3 mph N/A Rain Light Rain Showers
8:21 PM - - - N/A% - 15.0 mi South 17.3 mph - N/A   Overcast
9:00 PM 50.0 °F - 39.2 °F 66% 29.94 in 15.0 mi SSW 17.3 mph 23.0 mph N/A   Mostly Cloudy
10:00 PM 50.0 °F - 41.0 °F 71% 29.91 in 15.0 mi SSW 12.7 mph 18.4 mph N/A   Overcast
11:00 PM 51.8 °F - 41.0 °F 67% 29.88 in 15.0 mi SSW 12.7 mph 23.0 mph N/A   Overcast